Location: Newark
(4.9167°N, 114.9167°E)
Time: 10:58:34
(UTC+00:00)

ISS - Visible Passes

Search period start: 14 October 2019 00:00
Search period end: 24 October 2019 00:00
Orbit: 411 x 421 km, 51.6° (Epoch: 14 October)

Date Brightness Start Highest point End Pass type
(mag) Time Alt. Az. Time Alt. Az. Time Alt. Az.
14 Oct -1.7 11:43:12 10° WNW 11:46:00 25° SW 11:46:19 25° SW visible
15 Oct -3.4 10:54:15 10° NW 10:57:31 66° SW 11:00:48 10° SSE visible
17 Oct -0.5 10:55:23 10° W 10:56:59 13° SW 10:58:37 10° SSW visible
19 Oct -1.2 20:55:12 10° S 20:57:55 23° SE 21:00:39 10° ENE visible
20 Oct -0.4 20:08:55 10° SE 20:09:24 10° SE 20:09:53 10° ESE visible
21 Oct -3.9 20:56:45 50° WSW 20:57:23 63° NW 21:00:42 10° NNE visible
22 Oct -0.5 20:12:05 10° NE 20:12:05 10° NE 20:12:06 10° NE visible
